Regional Weather Roundup
Issued by NWS

Home | Current Version | Previous Version | Graphics & Text | Print | Product List | Glossary On
Versions: 1 2 3 4 5 6 7 8 9 10 11 12 13 14 15 16 17 18 19 20 21 22 23 24 25 26 27 28 29 30 31 32 33 34 35 36 37 38 39 40 41 42 43 44 45 46 47 48 49 50
000
ASUS43 KLSX 010510
RWRMO

WEATHER SUMMARY FOR MISSOURI
NATIONAL WEATHER SERVICE SPRINGFIELD MO
1200 AM CDT WED JUN 01 2016

NOTE: "FAIR" INDICATES FEW OR NO CLOUDS BELOW 12,000 FEET WITH NO
       SIGNIFICANT WEATHER AND/OR OBSTRUCTIONS TO VISIBILITY.
       CURRENT SKY AND/OR WEATHER CONDITIONS ARE NOT AVAILABLE FOR
       CHILLICOTHE AND FARMINGTON.

MOZ001>031-035>038-043-044-053-054-010600-
...NORTHERN AND WESTERN MISSOURI...

CITY           SKY/WX    TMP DP  RH WIND       PRES   REMARKS
KANSAS CTY INT CLOUDY    67  63  87 W6        29.96S
KANSAS C DTWN  PTCLDY    70  66  87 CALM      29.95S
LEE`S SUMMIT   CLOUDY    70  65  84 W3        29.96F
ST JOSEPH      CLEAR     64  61  90 NW3       29.96R
CHILLICOTHE      N/A     66  62  87 NW5       29.95S
KIRKSVILLE     CLOUDY    66  65  96 W3        29.94S

$$
MOZ066>068-077>081-088>096-101>105-010600-
...SOUTHWEST MISSOURI...

CITY           SKY/WX    TMP DP  RH WIND       PRES   REMARKS
SPRINGFIELD    MOCLDY    70  63  78 CALM      29.97R
JOPLIN         LGT RAIN  65  64  97 SW7       29.98S

$$
MOZ032>034-039>042-045>050-055>058-069>072-010600-
...CENTRAL MISSOURI...

CITY           SKY/WX    TMP DP  RH WIND       PRES   REMARKS
COLUMBIA       MOCLDY    70  65  84 CALM      29.93S
JEFFERSON CITY MOCLDY    70  66  87 NW5       29.93R
ROLLA          MOCLDY    70  65  84 S5        29.94S
SEDALIA        MOCLDY    70  66  87 CALM      29.95S
WHITEMAN AFB   PTCLDY    71  71 100 NW5       29.93S
WARRENSBURG    CLOUDY    68  64  88 SW3       29.95R

$$
MOZ051-052-059>065-010600-
...EAST CENTRAL MISSOURI...

CITY           SKY/WX    TMP DP  RH WIND       PRES   REMARKS
ST LOUIS INTL  MOCLDY    77  64  64 VRB5      29.93F
SPIRIT OF STL  CLOUDY    71  67  87 W3        29.92S
ST CHARLES     MOCLDY    73  67  81 SE3       29.91F

$$
MOZ072>076-082>087-097>100-106>115-010600-
...SOUTH CENTRAL AND SOUTHEAST MISSOURI...

CITY           SKY/WX    TMP DP  RH WIND       PRES   REMARKS
CAPE GIRARDEAU CLOUDY    71  68  90 CALM      29.93S
FARMINGTON     CLOUDY    67  65  93 CALM      29.96S
POPLAR BLUFF   CLOUDY    71  69  93 CALM      29.93R
WEST PLAINS    CLOUDY    69  65  86 CALM      29.99R

$$



USA.gov is the U.S. government's official web portal to all federal, state and local government web resources and services.